FW5287 Weather Reports


Display with metric or nautical units.
time (UTC)temp
F
wind
direction
speed
MPH
gust
MPH
rain 1hr
in
rain 24hr
in
rain mn
in
humidity
%
barometer
mb
20260906123010 66 360 3.0 7.0 0.00 0.01 0.00 95 1017.7
20260906121502 66 360 2.0 8.0 0.00 0.01 0.00 95 1017.7
20260906114559 67 138 2.0 7.0 0.00 0.01 0.00 95 1017.3
20260906113100 67 143 1.0 5.0 0.00 0.01 0.00 95 1017.5
20260906111601 67 132 2.0 5.0 0.00 0.01 0.00 95 1017.2
20260906104554 67 360 2.0 8.0 0.00 0.01 0.00 95 1016.9
20260906103104 67 167 2.0 9.0 0.00 0.01 0.00 95 1016.9
20260906101554 67 167 3.0 8.0 0.00 0.01 0.00 95 1016.8
20260906100056 67 126 3.0 7.0 0.00 0.01 0.00 96 1016.8
20260906094550 67 144 1.0 4.0 0.00 0.01 0.00 95 1016.7
20260906093052 67 128 2.0 6.0 0.00 0.01 0.00 95 1016.4
20260906091549 67 360 1.0 7.0 0.00 0.01 0.00 95 1015.9
20260906090059 67 110 2.0 8.0 0.00 0.01 0.00 95 1016.0
20260906084549 67 127 2.0 6.0 0.00 0.01 0.00 95 1016.1
20260906083046 67 360 1.0 4.0 0.00 0.01 0.00 95 1016.1
20260906081552 67 108 1.0 5.0 0.00 0.01 0.00 95 1016.2
20260906080044 67 107 0.0 4.0 0.00 0.01 0.00 94 1016.1
20260906074542 67 118 1.0 4.0 0.00 0.01 0.00 94 1016.3
20260906073056 68 360 1.0 3.0 0.00 0.01 0.00 94 1016.3
20260906071540 68 102 1.0 4.0 0.00 0.01 0.00 94 1016.5
20260906070040 68 103 1.0 3.0 0.00 0.01 0.00 94 1016.5
20260906064537 68 360 1.0 4.0 0.00 0.01 0.00 94 1016.7
20260906063045 68 360 1.0 4.0 0.00 0.01 0.00 94 1016.6
20260906061534 69 115 2.0 4.0 0.00 0.01 0.00 94 1016.7
20260906060032 69 105 2.0 5.0 0.00 0.01 0.00 94 1016.7
20260906054533 69 360 1.0 5.0 0.00 0.01 0.00 94 1016.7
20260906053031 69 98 1.0 6.0 0.00 0.01 0.00 94 1016.7
20260906051549 69 360 1.0 4.0 0.00 0.01 0.00 94 1016.5
20260906050029 69 360 1.0 4.0 0.00 0.01 0.00 95 1016.6
20260906044527 69 106 1.0 2.0 0.00 0.01 0.01 94 1016.6
20260906043026 69 109 1.0 2.0 0.00 0.01 0.01 94 1016.7
20260906041525 69 110 0.0 3.0 0.00 0.01 0.01 94 1016.7
20260906040032 69 120 0.0 1.0 0.00 0.01 0.01 94 1016.6
20260906034529 69 120 0.0 2.0 0.00 0.01 0.01 94 1016.5
20260906033022 70 360 0.0 1.0 0.00 0.01 0.01 93 1016.2
20260906031529 70 120 0.0 1.0 0.00 0.01 0.01 93 1016.2
20260906030019 71 121 0.0 1.0 0.00 0.01 0.01 93 1016.1
20260906024520 71 121 0.0 2.0 0.00 0.01 0.01 93 1016.0
20260906023019 71 121 0.0 3.0 0.00 0.01 0.01 93 1015.8
20260906021519 72 119 0.0 3.0 0.00 0.01 0.01 93 1015.7
20260906020021 72 110 0.0 4.0 0.00 0.01 0.01 93 1015.6
20260906014526 72 101 1.0 4.0 0.00 0.01 0.01 93 1015.2
20260906013017 72 85 0.0 3.0 0.00 0.01 0.01 93 1015.0
20260906011516 72 90 0.0 0.0 0.00 0.01 0.01 92 1015.0
20260906010016 72 90 0.0 0.0 0.00 0.01 0.01 91 1014.7
20260906004515 73 89 0.0 0.0 0.00 0.01 0.01 91 1014.5
20260906003015 73 88 0.0 0.0 0.00 0.01 0.01 90 1014.2
20260906001514 74 92 0.0 0.0 0.00 0.01 0.01 90 1014.1
20260906000014 74 88 0.0 0.0 0.00 0.01 0.01 89 1014.0
20260905234513 74 88 0.0 3.0 0.00 0.01 0.01 90 1014.0
20260905233013 75 89 1.0 4.0 0.00 0.01 0.01 89 1014.0
20260905231522 75 360 1.0 7.0 0.00 0.01 0.01 88 1014.0
20260905230018 75 99 2.0 8.0 0.00 0.01 0.01 88 1013.7
20260905224511 76 109 2.0 7.0 0.00 0.01 0.01 88 1013.5
20260905223011 76 110 2.0 8.0 0.00 0.01 0.01 88 1013.6
20260905221511 76 360 2.0 5.0 0.00 0.01 0.01 89 1013.6
20260905220010 76 126 3.0 9.0 0.00 0.01 0.01 88 1013.6
20260905214509 76 98 3.0 9.0 0.00 0.01 0.01 88 1013.4
20260905213010 76 84 1.0 7.0 0.00 0.01 0.01 89 1013.6
20260905211509 75 105 2.0 6.0 0.00 0.01 0.01 89 1013.7
20260905210008 76 109 2.0 9.0 0.00 0.01 0.01 88 1013.7
20260905204506 76 83 2.0 8.0 0.00 0.01 0.01 88 1013.9
20260905203006 77 360 4.0 9.0 0.00 0.01 0.01 87 1014.2
20260905201506 77 78 4.0 10.0 0.00 0.01 0.01 87 1014.3
20260905200005 77 360 3.0 9.0 0.00 0.01 0.01 88 1014.1
20260905194504 77 360 2.0 9.0 0.00 0.01 0.01 87 1014.5
20260905193003 78 82 3.0 7.0 0.00 0.01 0.01 87 1014.7
20260905191600 77 360 1.0 4.0 0.00 0.01 0.01 88 1015.3
20260905190059 77 14 1.0 4.0 0.00 0.01 0.01 88 1015.7
20260905184600 75 92 2.0 8.0 0.00 0.01 0.01 94 1015.6
20260905183052 73 360 2.0 7.0 0.00 0.01 0.01 96 1015.6
20260905181549 72 360 1.0 5.0 0.00 0.01 0.01 96 1015.8
20260905180047 71 13 2.0 4.0 0.00 0.01 0.01 96 1016.3
20260905174550 71 360 2.0 6.0 0.00 0.01 0.01 96 1016.1
20260905173046 71 360 3.0 6.0 0.00 0.01 0.01 96 1016.0
20260905171557 72 360 3.0 8.0 0.00 0.01 0.01 96 1015.9
20260905170047 72 360 2.0 5.0 0.00 0.01 0.01 96 1016.0
20260905164548 72 82 3.0 6.0 0.00 0.01 0.01 96 1015.8
20260905163052 72 104 4.0 8.0 0.00 0.01 0.01 96 1015.8
20260905161544 72 360 3.0 8.0 0.00 0.01 0.01 96 1015.7
20260905160041 72 360 2.0 6.0 0.00 0.01 0.01 96 1015.7
20260905154545 72 360 3.0 8.0 0.00 0.01 0.01 96 1015.6
20260905153039 72 360 2.0 4.0 0.00 0.01 0.01 96 1015.5
20260905151537 72 360 2.0 5.0 0.00 0.01 0.01 96 1015.4
20260905150042 72 360 3.0 6.0 0.00 0.01 0.01 96 1015.2
20260905144536 73 360 2.0 4.0 0.00 0.01 0.01 96 1014.9
20260905143028 72 360 2.0 8.0 0.00 0.01 0.01 96 1014.6
20260905141526 73 360 3.0 8.0 0.00 0.01 0.01 96 1014.4
20260905140022 73 360 1.0 5.0 0.00 0.01 0.01 96 1014.4
20260905134522 73 360 1.0 6.0 0.00 0.01 0.01 96 1014.1
20260905133012 73 360 2.0 6.0 0.00 0.01 0.01 96 1014.0
20260905131523 72 360 2.0 6.0 0.00 0.01 0.01 96 1013.7
20260905130007 72 360 2.0 5.0 0.01 0.01 0.01 96 1013.6
20260905124504 72 360 2.0 4.0 0.01 0.01 0.01 96 1013.2
20260905123101 71 360 1.0 4.0 0.01 0.01 0.01 97 1012.9